EIN757 LEZL-EIDW

Flight info

Callsign EIN757
Flight time N/A
Altitude 38000
Route HIJ2P HIJ DCT PARKA DCT MELON DCT ZMR DCT NUBLO DCT RONSI DCT DELOG DCT NOZHU DCT SHIRI DCT UNFIT DCT PENWU DCT NICXI DCT PEMOB DCT LEMGU M17 VATRY VATRY3L
Aircraft A20N/M-SDE2E3FGHIRWXY/LB1

Departure

Time 2026-04-15 21:12
Airport Seville Airport (LEZL)

Arrival

Time N/A
Airport Dublin Airport (EIDW)
Time Latitude Longitude Altitude Speed Heading
2026-04-15 20:51 37.42392 -5.89741 98 ft 0 kts 344°
2026-04-15 21:01 37.42386 -5.89739 100 ft 3 kts 344°
2026-04-15 21:01 37.42368 -5.89733 98 ft 3 kts 344°
2026-04-15 21:01 37.42350 -5.89727 98 ft 3 kts 344°
2026-04-15 21:02 37.42332 -5.89720 98 ft 2 kts 343°
2026-04-15 21:02 37.42322 -5.89712 98 ft 2 kts 281°
2026-04-15 21:02 37.42325 -5.89695 100 ft 0 kts 217°
2026-04-15 21:04 37.42324 -5.89695 100 ft 0 kts 217°
2026-04-15 21:05 37.42324 -5.89696 100 ft 0 kts 217°
2026-04-15 21:05 37.42318 -5.89701 100 ft 2 kts 217°
2026-04-15 21:05 37.42298 -5.89717 97 ft 7 kts 202°
2026-04-15 21:05 37.42240 -5.89670 98 ft 17 kts 142°
2026-04-15 21:06 37.42134 -5.89552 97 ft 21 kts 135°
2026-04-15 21:06 37.42033 -5.89424 96 ft 21 kts 134°
2026-04-15 21:06 37.41982 -5.89290 98 ft 16 kts 90°
2026-04-15 21:06 37.41983 -5.89162 100 ft 14 kts 90°
2026-04-15 21:07 37.41983 -5.89047 101 ft 14 kts 90°
2026-04-15 21:07 37.41983 -5.88905 104 ft 16 kts 90°
2026-04-15 21:07 37.41984 -5.88790 108 ft 14 kts 89°
2026-04-15 21:07 37.41985 -5.88649 111 ft 17 kts 89°
2026-04-15 21:08 37.41985 -5.88505 110 ft 16 kts 90°
2026-04-15 21:08 37.41986 -5.88369 111 ft 14 kts 90°
2026-04-15 21:08 37.41986 -5.88250 112 ft 13 kts 90°
2026-04-15 21:08 37.41986 -5.88140 112 ft 14 kts 90°
2026-04-15 21:09 37.41987 -5.87971 108 ft 20 kts 89°
2026-04-15 21:09 37.41987 -5.87795 108 ft 19 kts 90°
2026-04-15 21:09 37.41988 -5.87629 109 ft 19 kts 89°
2026-04-15 21:09 37.41962 -5.87477 108 ft 15 kts 122°
2026-04-15 21:10 37.41894 -5.87427 110 ft 12 kts 180°
2026-04-15 21:10 37.41826 -5.87442 112 ft 8 kts 185°
2026-04-15 21:10 37.41801 -5.87472 113 ft 1 kts 270°
2026-04-15 21:10 37.41802 -5.87478 113 ft 1 kts 273°
2026-04-15 21:11 37.41802 -5.87494 112 ft 3 kts 273°
2026-04-15 21:11 37.41804 -5.87529 112 ft 5 kts 273°
2026-04-15 21:11 37.41806 -5.87583 111 ft 7 kts 270°
2026-04-15 21:11 37.41800 -5.87796 109 ft 55 kts 269°
2026-04-15 21:12 37.41799 -5.88548 110 ft 116 kts 270°
2026-04-15 21:12 37.41794 -5.89774 126 ft 161 kts 271°
2026-04-15 21:12 37.41785 -5.91175 659 ft 159 kts 270°
2026-04-15 21:12 37.41936 -5.92542 1168 ft 161 kts 297°
2026-04-15 21:13 37.42746 -5.93494 1650 ft 163 kts 328°
2026-04-15 21:13 37.43736 -5.94367 2011 ft 189 kts 321°
2026-04-15 21:13 37.44767 -5.95553 2320 ft 214 kts 316°
2026-04-15 21:13 37.45915 -5.96971 2605 ft 245 kts 316°
2026-04-15 21:14 37.47174 -5.98510 3238 ft 257 kts 316°
2026-04-15 21:14 37.48488 -6.00094 4063 ft 262 kts 317°
2026-04-15 21:14 37.49811 -6.01693 4967 ft 264 kts 316°
2026-04-15 21:14 37.51129 -6.03290 5839 ft 268 kts 316°
2026-04-15 21:15 37.52487 -6.04921 6718 ft 271 kts 316°
2026-04-15 21:15 37.53866 -6.06570 7574 ft 274 kts 316°
2026-04-15 21:15 37.55258 -6.08227 8458 ft 277 kts 317°
2026-04-15 21:15 37.56667 -6.09903 9356 ft 280 kts 316°
2026-04-15 21:16 37.58094 -6.11593 10222 ft 283 kts 319°
2026-04-15 21:16 37.59824 -6.12867 10721 ft 300 kts 344°
2026-04-15 21:16 37.61970 -6.12967 11000 ft 323 kts 11°
2026-04-15 21:16 37.64048 -6.11777 11294 ft 344 kts 36°
2026-04-15 21:17 37.65648 -6.09464 11803 ft 357 kts 56°
2026-04-15 21:17 37.66964 -6.06769 12496 ft 362 kts 54°
2026-04-15 21:17 37.68462 -6.04195 13205 ft 366 kts 48°
2026-04-15 21:17 37.70157 -6.01757 13927 ft 370 kts 44°
2026-04-15 21:18 37.71973 -5.99430 14588 ft 374 kts 41°
2026-04-15 21:18 37.73869 -5.97151 15252 ft 377 kts 40°
2026-04-15 21:18 37.75811 -5.94899 15915 ft 381 kts 39°
2026-04-15 21:18 37.77787 -5.92650 16584 ft 384 kts 39°
2026-04-15 21:19 37.79764 -5.90421 17227 ft 388 kts 39°
2026-04-15 21:19 37.81793 -5.88145 17859 ft 392 kts 39°
2026-04-15 21:19 37.83845 -5.85847 18477 ft 396 kts 39°
2026-04-15 21:19 37.85922 -5.83523 19012 ft 400 kts 39°
2026-04-15 21:20 37.88021 -5.81174 19506 ft 405 kts 39°
2026-04-15 21:20 37.90145 -5.78797 20011 ft 410 kts 39°
2026-04-15 21:20 37.92294 -5.76391 20537 ft 414 kts 38°
2026-04-15 21:20 37.94461 -5.73962 21058 ft 418 kts 38°
2026-04-15 21:21 37.96647 -5.71510 21561 ft 422 kts 38°
2026-04-15 21:21 37.98857 -5.69029 22080 ft 426 kts 38°
2026-04-15 21:21 38.01088 -5.66523 22555 ft 430 kts 38°
2026-04-15 21:21 38.03338 -5.63993 23025 ft 434 kts 38°
2026-04-15 21:22 38.05613 -5.61433 23469 ft 439 kts 38°
2026-04-15 21:22 38.07873 -5.58888 23924 ft 442 kts 38°
2026-04-15 21:22 38.10186 -5.56280 24329 ft 445 kts 38°
2026-04-15 21:22 38.12510 -5.53658 24729 ft 449 kts 38°
2026-04-15 21:23 38.14852 -5.51011 25135 ft 452 kts 38°
2026-04-15 21:23 38.17209 -5.48347 25534 ft 455 kts 38°
2026-04-15 21:23 38.19582 -5.45663 25931 ft 458 kts 38°
2026-04-15 21:23 38.21975 -5.42953 26305 ft 461 kts 38°
2026-04-15 21:24 38.24378 -5.40229 26687 ft 464 kts 38°
2026-04-15 21:24 38.26798 -5.37484 27051 ft 467 kts 38°
2026-04-15 21:24 38.29231 -5.34720 27401 ft 470 kts 38°
2026-04-15 21:24 38.31675 -5.31943 27751 ft 473 kts 38°
2026-04-15 21:25 38.34137 -5.29140 28119 ft 475 kts 38°
2026-04-15 21:25 38.36606 -5.26329 28433 ft 478 kts 38°
2026-04-15 21:25 38.39092 -5.23494 28766 ft 481 kts 38°
2026-04-15 21:25 38.41590 -5.20645 29118 ft 482 kts 38°
2026-04-15 21:26 38.44061 -5.17827 29575 ft 481 kts 37°
2026-04-15 21:26 38.46664 -5.15167 30082 ft 477 kts 30°
2026-04-15 21:26 38.49519 -5.13051 30497 ft 472 kts 20°
2026-04-15 21:26 38.52587 -5.11619 30871 ft 466 kts
2026-04-15 21:27 38.55756 -5.10907 31283 ft 459 kts 359°
2026-04-15 21:27 38.58932 -5.10832 31694 ft 454 kts 353°
2026-04-15 21:27 38.62083 -5.11032 32039 ft 452 kts 351°
2026-04-15 21:27 38.65214 -5.11361 32389 ft 451 kts 349°
2026-04-15 21:28 38.68297 -5.11734 32739 ft 450 kts 349°
2026-04-15 21:28 38.71414 -5.12114 33088 ft 449 kts 349°
2026-04-15 21:28 38.74527 -5.12478 33421 ft 449 kts 349°
2026-04-15 21:28 38.77638 -5.12825 33746 ft 448 kts 349°
2026-04-15 21:29 38.80750 -5.13157 34062 ft 448 kts 349°
2026-04-15 21:29 38.83859 -5.13480 34345 ft 448 kts 349°
2026-04-15 21:29 38.86969 -5.13797 34610 ft 448 kts 349°
2026-04-15 21:29 38.90074 -5.14111 34880 ft 447 kts 349°
2026-04-15 21:30 38.93179 -5.14425 35150 ft 446 kts 349°
2026-04-15 21:30 38.96270 -5.14739 35418 ft 445 kts 349°
2026-04-15 21:30 38.99310 -5.15089 35666 ft 442 kts 346°
2026-04-15 21:30 39.02362 -5.15665 35921 ft 441 kts 345°
2026-04-15 21:31 39.08414 -5.16925 36380 ft 439 kts 344°
2026-04-15 21:31 39.11422 -5.17582 36603 ft 438 kts 343°
2026-04-15 21:32 39.17444 -5.18911 37032 ft 437 kts 343°
2026-04-15 21:32 39.20401 -5.19563 37245 ft 437 kts 343°
2026-04-15 21:32 39.23412 -5.20226 37450 ft 437 kts 343°
2026-04-15 21:32 39.26403 -5.20883 37703 ft 435 kts 343°
2026-04-15 21:33 39.29391 -5.21538 37933 ft 434 kts 343°
2026-04-15 21:33 39.32366 -5.22190 38121 ft 434 kts 343°
2026-04-15 21:33 39.35354 -5.22847 38221 ft 435 kts 343°
2026-04-15 21:34 39.41293 -5.24156 38219 ft 434 kts 343°
2026-04-15 21:34 39.47248 -5.25468 38236 ft 433 kts 343°
2026-04-15 21:35 39.53189 -5.26779 38227 ft 432 kts 342°
2026-04-15 21:35 39.59125 -5.28094 38214 ft 432 kts 343°
2026-04-15 21:36 39.65026 -5.29403 38218 ft 432 kts 343°
2026-04-15 21:36 39.70949 -5.30719 38220 ft 431 kts 342°
2026-04-15 21:37 39.76865 -5.32023 38207 ft 431 kts 343°
2026-04-15 21:37 39.82812 -5.33143 38208 ft 432 kts 345°
2026-04-15 21:38 39.88760 -5.34171 38212 ft 433 kts 345°
2026-04-15 21:38 39.94779 -5.35217 38217 ft 433 kts 344°
2026-04-15 21:39 40.00720 -5.36268 38222 ft 433 kts 344°
2026-04-15 21:39 40.06683 -5.37334 38222 ft 432 kts 344°
2026-04-15 21:40 40.12645 -5.38403 38231 ft 432 kts 344°
2026-04-15 21:40 40.18605 -5.39471 38235 ft 431 kts 344°
2026-04-15 21:41 40.24506 -5.40534 38232 ft 429 kts 343°
2026-04-15 21:41 40.30449 -5.41621 38243 ft 431 kts 344°
2026-04-15 21:42 40.36402 -5.42683 38255 ft 431 kts 344°
2026-04-15 21:42 40.42352 -5.43750 38245 ft 431 kts 344°
2026-04-15 21:43 40.48262 -5.44817 38256 ft 431 kts 344°
2026-04-15 21:43 40.54206 -5.45895 38262 ft 431 kts 344°
2026-04-15 21:44 40.60147 -5.46974 38254 ft 431 kts 344°
2026-04-15 21:44 40.66086 -5.48054 38249 ft 430 kts 344°
2026-04-15 21:45 40.71980 -5.49128 38257 ft 430 kts 344°
2026-04-15 21:45 40.77910 -5.50210 38270 ft 430 kts 344°
2026-04-15 21:46 40.83830 -5.51293 38288 ft 428 kts 345°
2026-04-15 21:46 40.89721 -5.52371 38292 ft 427 kts 345°
2026-04-15 21:47 40.95607 -5.53452 38294 ft 427 kts 345°
2026-04-15 21:47 41.01509 -5.54539 38299 ft 427 kts 345°
2026-04-15 21:48 41.07405 -5.55626 38284 ft 427 kts 345°
2026-04-15 21:48 41.13266 -5.56707 38278 ft 427 kts 345°
2026-04-15 21:49 41.19163 -5.57797 38270 ft 427 kts 345°
2026-04-15 21:49 41.25056 -5.58889 38258 ft 428 kts 345°
2026-04-15 21:50 41.29959 -5.59798 38254 ft 428 kts 345°
2026-04-15 21:50 41.35863 -5.60895 38251 ft 428 kts 345°
2026-04-15 21:51 41.42724 -5.62171 38269 ft 428 kts 346°
2026-04-15 21:51 41.47671 -5.63088 38249 ft 429 kts 347°